www.pogodaiklimat.ru

Погода и климат >> Архив погоды >> Венгрия >> Залаэгерсег


ПОГОДА в Залаэгерсеге

  • Прогноз погоды в Залаэгерсеге
  • Монитор погоды в Залаэгерсеге

АРХИВ ПОГОДЫ в Залаэгерсеге

Время (UTC), дата Ветер
(напр.,м/с)
 
Видим.   Явления Облачность Т
(С)
Тd
(С)
f
(%)
Тe
(С)
Тes
(С)
Комфортность P
(гПа)
Po
(гПа)
Тmin
(С)
Tmax
(С)
R
(мм)
R24
(мм)
S
(см)
19 14.03 ЮВ 4 н/о н/о +8.2 -1.9 49 +6 +6 1006.0 977.0
20 14.03 Ю 4
{7}
н/о н/о +8.4 -2.3 47 +6 +6 1005.5 976.6
21 14.03 Ю 4
{7}
н/о н/о +7.8 -2.0 50 +5 +5 1004.8 975.8
22 14.03 Ю 5
{9}
н/о н/о +8.1 -2.5 47 +5 +5 1004.2 975.3
23 14.03 ЮЗ 5
{6}
н/о н/о +7.9 -2.7 47 +5 +5 1003.9 975.0
00 15.03 ЮЗ 5
{8}
н/о н/о +7.6 -2.7 48 +4 +4 1004.3 975.3
01 15.03 ЮЗ 6
{8}
н/о н/о +6.8 -3.2 49 +3 +3 1004.6 975.5
02 15.03 ЮЗ 4
{7}
н/о н/о +5.9 -3.2 52 +3 +3 1005.2 976.0
03 15.03 ЮЗ 2 н/о н/о +5.2 -2.9 56 +3 +3 1005.9 976.6
04 15.03 З 2 н/о н/о +4.5 -3.7 55 +2 +2 1006.4 977.1
05 15.03 ЮЗ 1 н/о н/о +3.7 -3.6 59 +3 +3 1007.7 978.2
06 15.03 З 2 н/о н/о +3.4 -3.0 63 +1 +1 1008.5 979.0 +3.1
07 15.03 СВ 1 н/о н/о +5.8 -0.7 63 +5 +5 1009.2 979.9
08 15.03 З 4
{8}
н/о н/о +10.1 -1.9 43 +8 +8 1009.2 980.3
09 15.03 СЗ 5
{10}
н/о н/о +10.7 -2.3 40 +8 +8 1010.1 981.3
10 15.03 З 6
{13}
н/о н/о +11.7 -2.5 37 +9 +9 1009.4 980.7
11 15.03 СЗ 6
{11}
н/о н/о +11.9 -3.5 34 +10 +10 1009.2 980.5
12 15.03 СЗ 3
{9}
н/о н/о +12.1 -4.5 31 +11 +11 1009.2 980.5
13 15.03 З 3
{7}
н/о н/о +11.7 -2.1 38 +10 +10 1009.4 980.7
14 15.03 З 4
{7}
н/о н/о +10.6 -0.5 46 +9 +9 1010.0 981.2
15 15.03 ЮВ 2
{9}
н/о н/о +9.1 +1.5 59 +8 +8 1010.4 981.4
16 15.03 Ю 2 н/о н/о +8.8 +1.2 59 +7 +7 1010.2 981.2
17 15.03 С 1 н/о н/о +8.3 +3.2 70 +8 +8 1009.5 980.5
18 15.03 ЮВ 1 н/о н/о +7.9 +3.0 71 +7 +7 1009.6 980.5 +12.6 0.2
19 15.03 Ю 2 н/о н/о +8.4 +2.2 65 +7 +7 1009.3 980.3
20 15.03 Ю 1 н/о н/о +8.3 +2.1 65 +8 +8 1009.3 980.3
21 15.03 Ю 3 н/о н/о +8.3 +1.2 61 +6 +6 1008.8 979.8
22 15.03 Ю 3 н/о н/о +8.4 +0.4 57 +6 +6 1008.9 979.9
23 15.03 Ю 4 н/о н/о +8.9 -0.4 52 +6 +6 1008.0 979.1
00 16.03 ЮЗ 5
{8}
н/о н/о +8.0 +0.2 58 +5 +5 1008.1 979.1
01 16.03 ЮЗ 7
{11}
н/о н/о +9.0 +0.9 57 +5 +5 1007.3 978.4
02 16.03 ЮЗ 8
{13}
н/о н/о +9.5 +1.2 56 +6 +6 1007.1 978.2
03 16.03 ЮЗ 8
{11}
н/о н/о +9.5 +1.7 58 +6 +6 1007.4 978.5
04 16.03 ЮЗ 7
{10}
н/о н/о +9.2 +1.8 60 +6 +6 1007.6 978.7
05 16.03 З 6
{10}
н/о н/о +9.5 +1.9 59 +6 +6 1009.6 980.7
06 16.03 СВ 4
{12}
н/о н/о +7.6 +3.6 76 +4 +4 1011.4 982.2 +7.6
07 16.03 СВ 4
{7}
н/о н/о +7.5 +3.5 76 +4 +4 1012.4 983.2
08 16.03 СВ 4
{8}
н/о н/о +7.3 +3.9 79 +4 +4 1013.3 984.0
09 16.03 С 5
{8}
н/о н/о +7.5 +3.7 77 +4 +4 1014.3 985.0
10 16.03 СВ 4
{8}
н/о н/о +7.9 +4.3 78 +5 +5 1014.7 985.5
11 16.03 СВ 3
{7}
н/о н/о +8.3 +4.3 76 +6 +6 1015.0 985.8
12 16.03 СВ 1 н/о н/о +8.8 +4.4 74 +8 +8 1014.8 985.7
13 16.03 В 2 н/о н/о +9.2 +4.6 73 +8 +8 1014.4 985.3
14 16.03 В 2 н/о н/о +9.8 +5.0 72 +8 +8 1013.9 984.9
15 16.03 В 3 н/о н/о +10.0 +4.6 69 +8 +8 1013.6 984.6
16 16.03 ЮВ 3 н/о н/о +10.5 +4.9 68 +9 +9 1013.2 984.3
17 16.03 Ю 3 н/о н/о +9.7 +4.7 71 +8 +8 1013.4 984.4
18 16.03 ЮВ 3 н/о н/о +9.2 +4.2 71 +7 +7 1013.5 984.4 +10.5
19 16.03 Ю 2 н/о н/о +8.6 +4.2 74 +7 +7 1013.6 984.5
20 16.03 Ю 2 н/о н/о +8.0 +4.0 76 +6 +6 1013.6 984.4
21 16.03 штиль 0 н/о н/о +7.6 +3.8 77 +7 +7 1013.9 984.7
22 16.03 Ю 2 н/о н/о +7.9 +3.7 75 +6 +6 1013.5 984.3
23 16.03 Ю 2 н/о н/о +7.5 +3.7 77 +6 +6 1012.9 983.7
00 17.03 Ю 2 н/о н/о +6.2 +3.4 82 +4 +4 1012.9 983.5
01 17.03 Ю 3 н/о н/о +5.6 +3.4 86 +2 +2 1012.5 983.1
02 17.03 ЮЗ 1 н/о н/о +4.8 +3.0 88 +3 +3 1012.0 982.5
03 17.03 Ю 2 н/о н/о +5.4 +3.6 88 +3 +3 1011.8 982.4
04 17.03 ЮЗ 2 н/о н/о +5.7 +3.7 87 +3 +3 1011.8 982.4
05 17.03 ЮЗ 3 н/о н/о +4.9 +3.2 89 +1 +1 1011.7 982.2
06 17.03 Ю 3 н/о н/о +5.8 +4.1 89 +2 +2 1011.5 982.1 +4.6
07 17.03 Ю 3 н/о н/о +8.4 +5.3 81 +6 +6 1011.4 982.3
08 17.03 Ю 4 н/о н/о +12.3 +7.2 71 +10 +10 1010.9 982.2
09 17.03 Ю 5
{8}
н/о н/о +15.1 +7.4 60 +14 +14 1010.4 982.0
10 17.03 Ю 5
{10}
н/о н/о +17.0 +7.1 52 +16 +16 1009.9 981.7
11 17.03 Ю 6
{11}
н/о н/о +18.6 +7.1 47 +18 +18 1009.1 981.1
12 17.03 ЮЗ 8
{12}
н/о н/о +19.3 +5.7 41 +19 +19 1007.9 980.0
13 17.03 ЮЗ 11
{16}
н/о н/о +19.5 +4.8 38 +19 +19 1007.0 979.1
14 17.03 ЮЗ 10
{18}
н/о н/о +19.8 +3.9 35 +19 +19 1006.2 978.4
15 17.03 ЮЗ 10
{17}
н/о н/о +18.9 +5.4 41 +18 +18 1005.8 977.9
16 17.03 ЮЗ 11
{16}
н/о н/о +17.1 +3.4 40 +16 +16 1005.9 977.8
17 17.03 ЮЗ 10
{16}
н/о н/о +15.2 +4.0 47 +13 +13 1006.3 978.0
18 17.03 ЮЗ 8
{16}
н/о н/о +14.0 +4.0 51 +12 +12 1006.1 977.7 +20.0
19 17.03 Ю 9
{15}
н/о н/о +13.7 +4.3 53 +11 +11 1006.0 977.6
20 17.03 ЮЗ 8
{15}
н/о н/о +13.2 +4.6 56 +11 +11 1006.4 977.9
21 17.03 ЮЗ 7
{14}
н/о н/о +12.5 +4.5 58 +10 +10 1006.8 978.3
22 17.03 ЮЗ 6
{12}
н/о н/о +11.8 +4.5 61 +9 +9 1007.0 978.4
23 17.03 ЮЗ 6
{10}
н/о н/о +11.5 +4.9 64 +9 +9 1007.7 979.0
00 18.03 ЮЗ 5
{9}
н/о н/о +10.9 +5.0 67 +8 +8 1008.7 979.9
01 18.03 С 5
{11}
н/о н/о +11.1 +4.8 65 +9 +9 1010.6 981.8
02 18.03 СВ 5
{10}
н/о н/о +9.7 +0.6 53 +7 +7 1010.7 981.8
03 18.03 СВ 4
{7}
н/о н/о +8.4 +1.3 61 +6 +6 1011.9 982.8
04 18.03 СВ 5
{8}
н/о н/о +7.5 +0.5 61 +4 +4 1012.1 982.9
05 18.03 СВ 2
{8}
н/о н/о +6.6 +1.7 71 +5 +5 1014.6 985.2
06 18.03 СЗ 3
{14}
н/о н/о +5.4 +2.4 81 +2 +2 1016.0 986.5 +5.3 2
07 18.03 СЗ 3 н/о н/о +5.2 +3.2 87 +2 +2 1016.6 987.0
08 18.03 СЗ 5
{8}
н/о н/о +5.6 +1.3 74 +1 +1 1016.6 987.1
09 18.03 СЗ 4
{9}
н/о н/о +5.9 +0.9 70 +2 +2 1017.8 988.3
10 18.03 С 7
{11}
н/о н/о +5.6 -0.7 64 +1 +1 1018.7 989.1
11 18.03 С 4
{11}
н/о н/о +4.9 +1.4 78 +1 +1 1019.1 989.4
12 18.03 С 3
{10}
н/о н/о +5.6 0.0 67 +3 +3 1018.5 988.9 2
13 18.03 ЮЗ 3 н/о н/о +6.1 -0.8 61 +3 +3 1018.1 988.6
14 18.03 ЮЗ 2 н/о н/о +6.0 +1.9 75 +4 +4 1018.0 988.5
15 18.03 З 3 н/о н/о +5.8 +1.9 76 +3 +3 1018.5 988.9
16 18.03 ЮЗ 1 н/о н/о +5.6 +2.3 79 +5 +5 1019.1 989.5
17 18.03 ЮЗ 2 н/о н/о +5.3 +2.7 83 +3 +3 1019.9 990.2
18 18.03 ЮЗ 3 н/о н/о +4.5 +2.7 88 +1 +1 1020.8 991.0 +6.3 2
19 18.03 ЮЗ 2 н/о н/о +4.1 +2.5 89 +1 +1 1021.4 991.6
20 18.03 ЮЗ 3 н/о н/о +3.9 +2.4 90 0 0 1022.0 992.1
21 18.03 ЮЗ 2 н/о н/о +3.6 +2.3 91 +1 +1 1022.8 992.9
22 18.03 З 1 н/о н/о +3.4 +2.2 92 +2 +2 1022.8 992.9
23 18.03 СЗ 1 н/о н/о +3.1 +1.9 92 +1 +1 1022.9 992.9
00 19.03 СЗ 2 н/о н/о +3.2 +2.0 92 0 0 1023.1 993.1
01 19.03 СЗ 2 н/о н/о +3.2 +1.7 90 0 0 1023.1 993.1
02 19.03 С 3 н/о н/о +3.5 +0.6 81 -0 -0 1022.7 992.8
03 19.03 С 3 н/о н/о +3.9 -0.5 73 0 0 1023.2 993.3
04 19.03 н/о н/о +4.0 -1.0 70 1023.5 993.6
05 19.03 С 4 н/о н/о +4.0 -1.2 69 -0 -0 1023.7 993.8
06 19.03 С 2 н/о н/о +4.0 -0.6 72 +1 +1 1024.7 994.8 +3.0
07 19.03 С 3 н/о н/о +4.0 -0.4 73 +1 +1 1025.1 995.2
08 19.03 С 4 н/о н/о +4.6 0.0 72 +1 +1 1025.8 995.9
09 19.03
{7}
н/о н/о +5.6 +1.0 72 1025.8 996.0
10 19.03
{7}
н/о н/о +6.3 +0.4 66 1026.0 996.3
11 19.03 С 3
{7}
н/о н/о +6.8 -0.2 61 +4 +4 1026.1 996.4
12 19.03 С 4
{7}
н/о н/о +7.5 +0.7 62 +4 +4 1025.7 996.1
13 19.03
{7}
н/о н/о +7.9 -1.6 51 1025.4 995.9
14 19.03 С 5
{8}
н/о н/о +8.3 -2.9 45 +5 +5 1025.2 995.7
15 19.03 С 4
{9}
н/о н/о +8.2 -2.4 47 +6 +6 1025.5 996.0
16 19.03 С 4
{7}
н/о н/о +7.7 -3.5 45 +5 +5 1026.0 996.4
17 19.03 С 3 н/о н/о +6.4 -2.5 53 +4 +4 1027.1 997.4
18 19.03 С 2 н/о н/о +5.3 -2.8 56 +3 +3 1028.1 998.2 +8.8
19 19.03 С 3 н/о н/о +4.7 -2.9 58 +2 +2 1028.7 998.7
20 19.03 СЗ 2 н/о н/о +3.6 -2.6 64 +1 +1 1029.2 999.1
21 19.03 СЗ 3 н/о н/о +3.0 -2.7 66 -1 -1 1029.7 999.5
22 19.03 С 3 н/о н/о +2.5 -2.4 70 -1 -1 1030.3 1000.0
23 19.03 СЗ 3 н/о н/о +1.9 -2.6 72 -2 -2 1030.7 1000.4
00 20.03 СЗ 4 н/о н/о +2.3 -2.4 71 -2 -2 1031.1 1000.8
01 20.03 СЗ 4 н/о н/о +1.8 -2.7 72 -3 -3 1031.5 1001.1
02 20.03 С 4 н/о н/о +1.3 -3.0 73 -4 -4 1031.5 1001.1
03 20.03 С 4 н/о н/о +1.2 -3.3 72 -4 -4 1031.6 1001.2
04 20.03 СЗ 4 н/о н/о +1.0 -3.7 71 -4 -4 1032.0 1001.5
05 20.03 СЗ 4 н/о н/о +0.9 -3.8 71 -4 -4 1032.3 1001.8
06 20.03 С 4
{7}
н/о н/о +1.5 -3.6 69 -3 -3 1033.1 1002.7 +0.8
07 20.03 С 5
{8}
н/о н/о +3.1 -3.0 64 -2 -2 1033.7 1003.4
08 20.03 С 5
{8}
н/о н/о +5.2 -1.9 60 +1 +1 1034.1 1004.0
09 20.03 С 5
{9}
н/о н/о +7.2 -1.5 54 +4 +4 1034.1 1004.2
10 20.03 С 6
{10}
н/о н/о +8.1 -6.4 35 +5 +5 1034.0 1004.2
11 20.03 С 3
{11}
н/о н/о +9.2 -5.8 34 +8 +8 1033.8 1004.2
12 20.03 С 5
{10}
н/о н/о +9.4 -6.5 32 +7 +7 1033.6 1004.0
13 20.03 С 5
{9}
н/о н/о +9.6 -5.9 33 +7 +7 1033.5 1003.9
14 20.03 С 6
{11}
н/о н/о +9.2 -6.6 32 +6 +6 1033.5 1003.9
15 20.03 С 4
{11}
н/о н/о +8.8 -5.1 37 +6 +6 1033.8 1004.1
16 20.03
{8}
н/о н/о +7.2 -4.5 43 1034.4 1004.5
17 20.03 С 3
{7}
н/о н/о +6.3 -5.0 44 +4 +4 1034.8 1004.8
18 20.03 С 3 н/о н/о +5.0 -5.4 47 +2 +2 1035.3 1005.2 +9.8
19 20.03 С 3 н/о н/о +4.7 -5.4 48 +2 +2 1035.7 1005.5
20 20.03 СВ 3 н/о н/о +4.4 -5.4 49 +1 +1 1036.1 1005.9
21 20.03 С 3 н/о н/о +3.5 -5.4 52 0 0 1036.4 1006.1
22 20.03 СЗ 1 н/о н/о +2.2 -5.4 57 +1 +1 1036.9 1006.4
23 20.03 СЗ 2 н/о н/о +1.5 -5.2 61 -1 -1 1037.1 1006.5
00 21.03 СЗ 2 н/о н/о +1.0 -5.2 63 -2 -2 1037.1 1006.5
01 21.03 СЗ 2 н/о н/о +0.1 -5.1 68 -3 -3 1037.1 1006.4
02 21.03 СЗ 2 н/о н/о +0.2 -5.2 67 -3 -3 1036.9 1006.2
03 21.03 СЗ 2 н/о н/о -0.4 -5.4 69 -4 -4 1037.1 1006.3
04 21.03 СЗ 1 н/о н/о -0.1 -5.5 67 -2 -2 1036.7 1006.0
05 21.03 СЗ 2 н/о н/о -0.6 -5.6 69 -4 -4 1037.0 1006.2
06 21.03 СЗ 2 н/о н/о -0.1 -5.1 69 -3 -3 1037.5 1006.7 -0.9
07 21.03 СЗ 1 н/о н/о +2.5 -4.0 62 +1 +1 1037.7 1007.2
08 21.03 С 2 н/о н/о +5.9 -3.2 52 +4 +4 1037.6 1007.5
09 21.03 С 2 н/о н/о +7.9 -3.3 45 +7 +7 1037.4 1007.5
10 21.03 н/о н/о +9.3 -3.3 41 1036.8 1007.1
11 21.03 СВ 1 н/о н/о +10.3 -4.9 34 +11 +11 1036.4 1006.8
12 21.03 С 3 н/о н/о +11.0 -3.1 37 +10 +10 1035.4 1005.9
13 21.03 З 1 н/о н/о +11.8 -3.9 33 +12 +12 1034.4 1005.0
14 21.03 С 2 н/о н/о +11.9 -3.9 33 +11 +11 1033.9 1004.5
15 21.03 С 1 н/о н/о +12.0 -5.0 30 +13 +13 1033.5 1004.1
17 21.03 СВ 1 н/о н/о +9.9 -4.5 36 +10 +10 1033.5 1003.9

 

Местоположение метеостанции Залаэгерсег (Венгрия): широта 46.87 долгота 16.80 высота над уровнем моря 180 м.

В архиве по умолчанию представлена погода в Залаэгерсеге за последнюю неделю. Архивные данные за месяц целиком и за предыдущие месяцы, начиная с января 2011 года, Вы можете получить, выбрав интересующий диапазон дат из раскрывающегося списка и нажав кнопку "Ввод!".


*Определитесь, кто Вы:
робот инопланетянин человек

Внимание! Время в таблицах - всемирное. Для получения местного времени необходимо прибавить поправку, которая равна 1 ч.

Смотрите также архив погоды в соседних городах и на ближайших метеорологических станциях:

Погода в Шармеллеке (Венгрия) (35 км)
Погода в Сентготтхарде (Венгрия) (37 км)
Погода в Сомбатхее (Венгрия) (46 км)
Погода в Надьканиже (Венгрия) (48 км)
Погода в Кляйнциккене (Австрия) (51 км)
Погода в Мурска-Соботе (Словения) (53 км)
Погода в Бад-Радкерсбурге (Австрия) (66 км)
Погода в Бад-Тацмансдорфе (Австрия) (67 км)
Погода в Луцмансбурге (Австрия) (68 км)
Погода в Бад-Глайхенбере (Австрия) (68 км)

Пояснения к столбцам:

Ветер - указаны скорость ветра в м/с - средняя за 10 мин, порывы в срок и между сроками (в фигурных скобках) и направление, откуда дует ветер: С - северный, СВ - северо-восточный, В - восточный, ЮВ - юго-восточный, Ю - южный, ЮЗ - юго-западный, З - западный, СЗ - северо-западный.
Видимость - горизонтальная дальность видимости в метрах или километрах. При видимости от 1 до 10 км при отсутствии осадков обычно наблюдается дымка, при ухудшении видимости до 1 км и менее - туман. В сухую погоду видимость может ухудшаться дымом, пылью или мглою.
Явления - указаны атмосферные явления, наблюдавшиеся в срок или в последний час перед сроком; фигурными скобками обозначены явления, наблюдавшиеся между сроками (за 1-3 часа до срока); квадратными скобками обозначены град или гололедные отложения с указанием их диаметра в мм.
Облачность - указаны через наклонную черту общая и нижняя облачность в баллах и высота нижней границы облаков в метрах; квадратными скобками обозначены формы облаков: Ci - перистые, Cs - перисто-слоистые, Cc - перисто-кучевые, Ac - высококучевые, As - высокослоистые, Sc - слоисто-кучевые, Ns - слоисто-дождевые, Cu - кучевые, Cb - кучево-дождевые. Подробнее классификацию облаков см. в Атласе облаков (PDF).
T - Температура воздуха - температура, измеренная на высоте 2 м над землей.
Td - Температура точки росы - температура, при понижении до которой содержащийся в воздухе водяной пар достигнет насыщения.
f - Относительная влажность воздуха - влажноcть воздуха, измеренная на высоте 2 м над землей.
Te - Эффективная температура - температура, которую ощущает одетый по сезону человек в тени. Характеристика душности погоды. При расчете учитывается влияние влажности воздуха и скорости ветра на теплоощущения человека.
Tes - Эффективная температура на солнце - температура, которую ощущает человек, с поправкой на солнечный нагрев. Характеристика знойности погоды. Зависит от высоты солнца над горизонтом, облачности и скорости ветра. Ночью, в пасмурную погоду, а также при ветре 12 м/с и более поправка равна нулю.
P - Атмосферное давление - приведенное к уровню моря атмосферное давление.
Po - Атмосферное давление - измеренное на уровне метеостанции атмосферное давление.
Tmin - Минимальная температура - минимум температуры воздуха на высоте 2 м над землей.
Tmax - Максимальная температура - максимум температуры воздуха на высоте 2 м над землей.
R - Количество осадков - Количество выпавших осадков за период времени, мм. При наведении курсора мыши на число - период времени, за который выпало указанное количество осадков.
R24 - Количество осадков - Количество выпавших осадков за 24 часа, мм.
S - Снежный покров - Высота снежного покрова, см. При наведении курсора мыши на число - состояние снежного покрова и степень покрытия местности в баллах.